P/2018 L1 ( PanSTARRS )

Japanese version
Home page
Updated on September 23, 2018

---------------------------------------------------------------------

* Profile

Discovery Date June 3, 2018
Magnitude 20.0 mag
Discoverer Pan-STARRS 1 telescope (Haleakala)

* Pictures

* Orbital Elements

Epoch 2018 Nov. 18.0 TT = JDT 2458440.5
T 2018 Nov. 12.52615 TT                                 MPCW
q   1.8856759            (2000.0)            P               Q
n   0.14146203     Peri.   17.88932     +0.27905133     +0.94252048
a   3.6478989      Node   268.62689     -0.90197682     +0.19158472
e   0.4830789      Incl.   10.59474     -0.32949686     +0.27377079
P   6.97
From 67 observations 2018 May 18-Sept. 6, mean residual 0".4.

* Magnitudes Graph

        m1 = 14.0 + 5 log d + 10.0 log r

---------------------------------------------------------------------

The orbital elements are published on M.P.E.C. 2018-S50.
The magnitudes graphs are made with Comet for Windows.

---------------------------------------------------------------------

Copyright(C) Seiichi Yoshida (comet@aerith.net). All rights reserved.